Weather History for Linden, NJ

Change the Weather History Date:

Wednesday, April 10, 2013

  Actual Average (KEWR) Record (KEWR)
Temperature  
Mean Temperature 67 °F 51 °F  
Max Temperature 77 °F 60 °F 82 °F (1955)
Min Temperature 57 °F 42 °F 28 °F (1997)
Degree Days  
Heating Degree Days 0 14  
Month to date heating degree days 159  
Since 1 July heating degree days 4503  
Cooling Degree Days 2 0  
Month to date cooling degree days 0  
Year to date cooling degree days 1  
Growing Degree Days 17 (Base 50)    
Moisture  
Dew Point 50 °F    
Average Humidity 59    
Maximum Humidity 94    
Minimum Humidity 37    
Precipitation  
Precipitation 0.37 in 0.15 in 2.57 in (1983)
Month to date precipitation 1.47  
Year to date precipitation 12.07  
Snow  
Snow 0.00 in 0.00 in 0.30 in (1974)
Month to date snowfall 0.5  
Since 1 July snowfall 28.1  
Snow Depth -    
Sea Level Pressure  
Sea Level Pressure 29.89 in    
Wind  
Wind Speed 5 mph (ESE)    
Max Wind Speed 30 mph    
Max Gust Speed 36 mph    
Visibility 9 miles    
Events Rain , Thunderstorm    
T = Trace of Precipitation, MM = Missing Value Source: NWS Daily Summary

Daily Weather History Graph

Daily Weather History Graph

Search for Another Location

Airport:

Trip Planner

Search our weather history database for the weather conditions in past years. The results will help you decide how hot, cold, wet, or windy it might be!

Date:

Astronomy

Apr. 10, 2013 Rise Set
Actual Time 6:25 AM EDT 7:31 PM EDT
Civil Twilight 5:57 AM EDT 7:59 PM EDT
Nautical Twilight 5:24 AM EDT 8:32 PM EDT
Astronomical Twilight 4:49 AM EDT 9:07 PM EDT
Moon 6:20 AM EDT (4/10) 8:04 PM EDT (4/10)
Length of Visible Light 14h 01m
Length of Day
13h 05m
New Moon, 0% of the Moon is Illuminated
Apr 10
New Moon
Apr 18
First Quarter
Apr 25
Full
May 2
Last Quarter
May 9
New

Hourly Weather History & Observations

Time (EDT) Temp. Dew Point Humidity Pressure Visibility Wind Dir Wind Speed Gust Speed Precip Events Conditions
12:15 AM 64.9 °F 45.5 °F 49% 29.89 in 10.0 mi Calm Calm - N/A   Clear
12:35 AM 68.7 °F 46.4 °F 45% 29.88 in 10.0 mi Calm Calm - N/A   Clear
12:55 AM 69.4 °F 48.0 °F 46% 29.88 in 10.0 mi Calm Calm - N/A   Clear
1:15 AM 70.3 °F 50.2 °F 49% 29.87 in 10.0 mi Calm Calm - N/A   Clear
1:35 AM 70.7 °F 51.4 °F 50% 29.86 in 10.0 mi SW 3.5 mph - N/A   Clear
1:55 AM 71.2 °F 52.0 °F 51% 29.86 in 10.0 mi WSW 4.6 mph - N/A   Clear
2:15 AM 70.9 °F 52.3 °F 52% 29.85 in 10.0 mi SW 4.6 mph - N/A   Clear
2:35 AM 69.8 °F 52.5 °F 54% 29.83 in 10.0 mi SSW 3.5 mph - N/A   Scattered Clouds
2:55 AM 69.4 °F 52.7 °F 55% 29.83 in 10.0 mi SW 3.5 mph - N/A   Clear
3:15 AM 69.8 °F 52.7 °F 54% 29.83 in 10.0 mi WSW 4.6 mph - N/A   Clear
3:55 AM 69.8 °F 53.1 °F 55% 29.83 in 10.0 mi WSW 8.1 mph - N/A   Clear
4:15 AM 68.5 °F 52.7 °F 57% 29.86 in 10.0 mi NW 9.2 mph 16.1 mph N/A   Scattered Clouds
4:35 AM 68.9 °F 51.8 °F 54% 29.86 in 10.0 mi NNW 4.6 mph - N/A   Scattered Clouds
4:55 AM 66.6 °F 47.8 °F 51% 29.87 in 10.0 mi North 4.6 mph - N/A   Clear
5:15 AM 65.5 °F 46.2 °F 50% 29.88 in 10.0 mi North 6.9 mph - N/A   Clear
5:35 AM 64.2 °F 45.1 °F 50% 29.89 in 10.0 mi North 6.9 mph - N/A   Clear
5:55 AM 62.1 °F 45.0 °F 53% 29.89 in 10.0 mi NE 5.8 mph - N/A   Clear
6:15 AM 60.8 °F 45.5 °F 57% 29.90 in 10.0 mi NNE 6.9 mph - N/A   Clear
6:35 AM 60.3 °F 45.9 °F 59% 29.91 in 10.0 mi North 4.6 mph - N/A   Clear
6:55 AM 60.4 °F 46.0 °F 59% 29.91 in 10.0 mi North 4.6 mph - N/A   Clear
7:15 AM 60.8 °F 46.2 °F 59% 29.93 in 10.0 mi North 4.6 mph - N/A   Clear
7:35 AM 61.7 °F 46.0 °F 56% 29.93 in 10.0 mi Calm Calm - N/A   Clear
7:55 AM 62.6 °F 46.0 °F 55% 29.94 in 10.0 mi Calm Calm - N/A   Mostly Cloudy
8:15 AM 62.6 °F 46.6 °F 56% 29.95 in 10.0 mi North 3.5 mph - N/A   Overcast
8:35 AM 62.8 °F 46.8 °F 56% 29.94 in 10.0 mi Calm Calm - N/A   Overcast
8:55 AM 63.1 °F 47.5 °F 57% 29.94 in 10.0 mi Calm Calm - N/A   Overcast
9:15 AM 63.7 °F 47.7 °F 56% 29.93 in 10.0 mi SE 3.5 mph - N/A   Mostly Cloudy
9:35 AM 65.5 °F 47.5 °F 52% 29.93 in 10.0 mi Calm Calm - N/A   Clear
9:55 AM 67.5 °F 48.0 °F 50% 29.93 in 10.0 mi Calm Calm - N/A   Clear
10:15 AM 68.4 °F 48.0 °F 48% 29.93 in 10.0 mi Calm Calm - N/A   Clear
10:35 AM 69.6 °F 48.9 °F 48% 29.92 in 10.0 mi ESE 3.5 mph - N/A   Mostly Cloudy
10:55 AM 71.8 °F 49.1 °F 45% 29.92 in 10.0 mi East 3.5 mph - N/A   Scattered Clouds
11:35 AM 74.3 °F 49.1 °F 41% 29.92 in 10.0 mi East 8.1 mph - N/A   Scattered Clouds
11:55 AM 73.2 °F 48.6 °F 42% 29.92 in 10.0 mi SE 6.9 mph - N/A   Scattered Clouds
12:15 PM 72.7 °F 48.2 °F 42% 29.93 in 10.0 mi SE 4.6 mph - N/A   Clear
12:35 PM 73.0 °F 48.4 °F 42% 29.92 in 10.0 mi ESE 4.6 mph - N/A   Clear
12:55 PM 75.0 °F 48.2 °F 39% 29.91 in 10.0 mi ESE 6.9 mph - N/A   Clear
1:15 PM 75.6 °F 48.7 °F 39% 29.90 in 10.0 mi East 9.2 mph - N/A   Clear
1:35 PM 76.8 °F 49.1 °F 38% 29.91 in 10.0 mi East 8.1 mph - N/A   Clear
1:55 PM 77.0 °F 49.1 °F 37% 29.91 in 10.0 mi ESE 11.5 mph - N/A   Clear
2:15 PM 71.6 °F 48.7 °F 44% 29.91 in 10.0 mi SE 12.7 mph - N/A   Clear
2:35 PM 70.2 °F 49.1 °F 47% 29.90 in 10.0 mi SE 16.1 mph - N/A   Clear
2:55 PM 69.1 °F 48.7 °F 48% 29.90 in 10.0 mi SE 10.4 mph - N/A   Scattered Clouds
3:15 PM 67.8 °F 48.6 °F 50% 29.89 in 10.0 mi SE 11.5 mph - N/A   Mostly Cloudy
3:35 PM 66.2 °F 48.4 °F 53% 29.89 in 10.0 mi SE 15.0 mph - N/A   Mostly Cloudy
3:55 PM 65.3 °F 48.6 °F 55% 29.88 in 10.0 mi SE 9.2 mph 17.3 mph N/A   Scattered Clouds
4:15 PM 64.8 °F 48.6 °F 56% 29.88 in 10.0 mi SE 11.5 mph - N/A   Scattered Clouds
4:35 PM 64.8 °F 48.9 °F 56% 29.88 in 10.0 mi SE 10.4 mph - N/A   Scattered Clouds
4:55 PM 63.3 °F 48.2 °F 58% 29.88 in 10.0 mi SE 12.7 mph 17.3 mph N/A   Clear
5:15 PM 62.2 °F 47.8 °F 59% 29.88 in 10.0 mi SE 10.4 mph 16.1 mph N/A   Scattered Clouds
5:35 PM 59.2 °F 47.3 °F 65% 29.87 in 10.0 mi SE 10.4 mph - N/A   Scattered Clouds
5:55 PM 57.7 °F 47.3 °F 68% 29.87 in 10.0 mi ESE 6.9 mph - N/A   Scattered Clouds
6:15 PM 57.7 °F 47.5 °F 69% 29.85 in 10.0 mi ESE 9.2 mph - N/A   Clear
6:35 PM 57.7 °F 47.8 °F 70% 29.84 in 10.0 mi ESE 5.8 mph - N/A   Clear
6:55 PM 57.9 °F 48.2 °F 70% 29.85 in 10.0 mi ENE 5.8 mph - N/A Thunderstorm Scattered Clouds
7:15 PM 61.0 °F 49.1 °F 65% 29.94 in 10.0 mi WNW 6.9 mph 11.5 mph N/A Thunderstorm Mostly Cloudy
7:35 PM 61.9 °F 53.6 °F 74% 29.88 in 5.0 mi ESE 9.2 mph - 0.04 in Rain Light Rain
7:55 PM 60.1 °F 54.1 °F 81% 29.84 in 7.0 mi SE 8.1 mph - 0.06 in Rain , Thunderstorm Light Thunderstorms and Rain
8:15 PM 59.5 °F 54.5 °F 83% 29.82 in 7.0 mi SE 11.5 mph - N/A Rain , Thunderstorm Light Thunderstorms and Rain
8:35 PM 58.5 °F 53.8 °F 84% 29.82 in 7.0 mi SE 9.2 mph - 0.01 in Rain , Thunderstorm Light Thunderstorms and Rain
8:55 PM 58.1 °F 53.2 °F 84% 29.85 in 7.0 mi SE 5.8 mph - 0.01 in   Mostly Cloudy
9:15 PM 57.7 °F 53.4 °F 85% 29.88 in 7.0 mi Calm Calm - N/A Rain Light Rain
9:35 PM 57.2 °F 52.7 °F 85% 29.84 in 7.0 mi SE 8.1 mph - N/A Thunderstorm Clear
9:55 PM 57.2 °F 53.6 °F 88% 29.81 in 7.0 mi East 9.2 mph - N/A Thunderstorm Thunderstorm
10:15 PM 57.2 °F 54.0 °F 89% 29.94 in 7.0 mi NW 29.9 mph 35.7 mph N/A Thunderstorm Mostly Cloudy
10:35 PM 58.5 °F 55.4 °F 90% 29.92 in 2.5 mi North 10.4 mph - 0.11 in Rain Rain
10:55 PM 58.5 °F 56.3 °F 93% 29.90 in 3.0 mi Calm Calm - 0.18 in Rain , Thunderstorm Rain
11:15 PM 58.5 °F 56.5 °F 93% 29.90 in 2.5 mi Calm Calm - 0.04 in Rain Rain
11:35 PM 58.1 °F 56.5 °F 94% 29.88 in 2.5 mi South 4.6 mph - 0.09 in Rain Rain
11:55 PM 58.1 °F 56.5 °F 94% 29.84 in 2.5 mi SSE 6.9 mph - 0.12 in Rain Light Rain